Temperature
19 19 19 19 19 19 19 19 19 19 19 19 19 19 19 19 19 19 18 18 18 18 18 18 18 18 18 18 18 18 18 18 18 18 18 18 18 18 18 17 17 17 17
20 19 19 19 19 19 19 19 19 19 19 19 19 19 19 19 19 19 18 18 18 18 18 18 18 18 18 18 18 18 18 18 18 18 18 18 18 17 17 17 17 17 17
20 20 19 19 19 19 19 19 19 19 19 19 19 19 19 19 19 18 18 18 18 18 18 18 18 18 18 18 18 18 18 18 18 18 18 18 18 17 17 17 17 17 17
20 20 19 19 19 19 19 19 19 19 19 19 19 19 19 19 19 18 18 18 18 18 18 18 18 18 18 18 18 18 18 18 18 18 18 18 18 17 17 17 17 17 17
20 20 19 19 19 19 19 19 19 19 19 19 19 19 19 19 19 18 18 18 18 18 18 18 18 18 18 18 18 18 18 18 18 18 18 18 17 17 17 17 17 17 17
20 20 19 19 19 19 19 19 19 19 19 19 19 19 19 19 19 18 18 18 18 18 18 18 18 18 18 18 18 18 18 18 18 18 18 17 17 17 17 17 17 17 17
20 19 19 19 19 19 19 19 19 19 19 19 19 19 19 19 19 18 18 18 18 18 18 18 18 18 18 18 18 18 18 18 18 18 18 17 17 17 17 17 17 17 17
20 19 19 19 19 19 19 19 19 19 19 19 19 19 19 19 19 18 18 18 18 18 18 18 18 18 18 18 18 18 18 18 18 18 17 17 17 17 17 17 17 17 17
19 19 19 19 19 19 19 19 19 19 19 19 19 19 19 19 19 18 18 18 18 18 18 18 18 18 18 18 18 18 18 18 18 18 17 17 17 17 17 17 17 17 17
19 19 19 19 19 19 19 19 19 19 19 19 19 19 19 19 19 18 18 18 18 18 18 18 18 18 18 18 18 17 17 18 18 17 17 17 17 17 17 17 17 17 17
19 19 19 19 19 19 19 19 19 19 19 19 19 19 19 19 19 18 18 18 18 18 18 18 18 18 18 17 17 17 18 18 18 17 17 17 17 17 17 17 17 17 17
19 19 19 19 19 19 19 19 19 19 19 19 19 19 19 19 19 18 18 18 18 18 18 18 18 17 17 17 17 17 17 17 18 17 17 17 17 17 17 17 17 17 17
19 19 19 19 19 19 19 19 19 19 19 19 19 19 19 19 19 18 18 18 18 18 18 18 18 18 17 17 17 17 17 17 17 17 17 17 17 17 17 17 17 17 17
19 19 19 19 19 19 19 19 19 19 19 19 19 19 18 18 18 18 18 18 18 18 18 18 18 18 17 17 17 17 17 17 17 17 17 17 17 17 17 17 17 17 17
19 19 19 19 19 19 18 18 18 19 19 19 19 18 18 18 18 18 18 18 18 18 18 18 18 18 17 17 17 17 17 17 17 17 17 17 17 17 17 17 17 17 17
20 19 19 19 19 18 18 18 18 18 18 18 18 18 18 18 18 18 18 18 18 18 18 18 18 18 17 17 17 17 17 17 17 17 17 17 17 17 17 17 17 17 16
20 19 19 19 19 18 18 18 18 18 18 18 18 18 18 18 18 18 18 18 18 18 18 18 18 18 17 17 17 17 17 17 17 17 17 17 17 17 17 17 17 16 16
20 19 19 19 19 18 18 18 18 18 18 18 18 18 18 18 18 18 18 18 18 18 18 18 18 17 17 17 17 17 17 17 17 17 17 17 17 17 17 17 16 16 16
20 19 19 19 19 19 18 18 18 18 18 18 18 18 18 18 18 18 18 18 18 18 18 18 18 17 17 17 17 17 17 17 17 17 17 17 17 17 17 17 16 16 16
20 19 19 19 19 19 18 18 18 18 18 18 18 18 18 18 18 18 18 18 18 18 18 18 18 17 17 17 17 17 17 17 17 17 17 17 17 17 16 16 16 16 16
20 19 19 19 19 19 19 19 18 18 18 18 18 18 18 18 18 18 18 18 18 18 18 18 18 17 17 17 17 17 17 17 17 17 17 17 17 16 16 16 16 16 16
20 20 19 19 19 19 19 19 19 18 18 18 18 18 18 18 18 18 18 18 18 18 18 18 18 17 17 17 17 17 17 17 17 17 17 17 17 16 16 16 16 16 16
20 20 20 19 19 19 19 19 19 19 18 18 18 18 18 18 18 18 18 18 18 18 18 18 18 18 17 17 17 17 17 17 17 17 17 17 16 16 16 16 16 16 16
20 20 20 19 19 19 19 19 19 19 18 18 18 18 18 18 18 18 18 18 18 18 17 17 17 17 17 17 17 17 17 17 17 16 16 16 16 16 16 16 16 16 16
21 20 20 20 19 19 19 19 19 19 19 18 18 18 18 18 18 18 18 18 18 18 17 17 17 17 17 17 17 17 17 17 17 17 16 16 16 16 16 16 16 16 16
21 20 20 20 19 19 19 19 19 19 19 19 19 18 18 18 18 18 18 18 18 18 18 18 17 17 17 17 17 17 17 17 17 17 16 16 16 16 16 16 16 16 16
Wind_Speed
2 2 4 6 8 9 10 11 11 11 12 12 12 12 11 12 11 12 13 13 12 12 12 12 13 13 14 13 13 13 13 13 14 13 13 14 15 16 15 15 14 13 15
3 4 5 6 8 10 11 11 11 11 11 11 11 11 11 11 11 12 12 12 12 12 13 13 13 13 13 13 13 13 13 13 13 13 14 14 15 15 14 14 13 12 15
3 4 6 7 9 10 11 11 11 11 11 11 10 10 10 11 11 12 12 12 13 12 12 12 12 12 12 13 13 13 12 12 13 13 13 11 12 13 13 13 14 14 14
4 5 6 8 9 10 11 11 11 11 11 10 10 10 10 10 11 11 12 12 12 12 12 12 12 12 12 12 12 12 11 11 12 11 9 9 9 12 12 13 13 14 14
4 5 7 9 9 10 10 10 10 10 10 10 10 10 10 10 11 11 12 12 12 12 12 12 11 11 11 11 12 11 10 10 10 10 8 7 8 11 12 12 12 13 14
4 6 7 8 9 9 9 9 9 9 9 9 9 10 11 11 11 11 11 11 11 11 11 11 11 11 11 11 11 10 10 9 9 8 7 7 7 10 11 12 12 13 13
4 4 6 7 8 8 8 8 8 8 8 8 9 9 9 10 10 10 11 11 11 10 10 10 10 10 10 9 9 9 9 9 8 7 7 7 7 10 11 11 12 12 12
4 4 5 6 6 7 8 7 7 7 7 7 8 8 8 9 9 10 10 9 9 9 8 9 9 9 8 8 8 8 8 7 7 7 6 6 7 9 10 11 11 11 11
4 3 3 4 4 5 6 7 7 7 7 7 7 7 8 8 8 9 9 8 8 8 8 8 7 7 7 7 7 7 6 6 6 6 6 6 7 9 10 10 10 9 10
3 2 2 3 3 3 3 5 5 5 6 6 6 7 7 7 7 7 7 7 7 7 7 7 7 6 6 6 6 5 6 6 6 6 5 6 8 8 9 9 9 8 9
2 1 2 2 2 2 2 3 4 4 5 5 5 6 5 4 4 5 6 6 6 6 5 6 6 5 5 5 5 5 5 4 6 5 5 6 8 8 8 9 8 8 8
2 1 1 1 1 1 2 2 2 2 2 3 4 4 4 4 3 4 4 4 5 5 5 5 5 5 5 4 4 4 3 4 5 4 5 7 8 8 8 8 8 8 8
2 1 1 1 1 1 1 1 2 2 2 2 3 3 4 3 3 3 3 3 3 4 4 4 4 4 4 4 3 3 3 3 3 3 4 6 7 7 7 8 8 8 8
2 1 1 2 2 1 1 1 1 1 1 1 2 3 3 2 2 1 1 2 2 3 3 3 3 4 4 4 3 3 3 3 2 2 3 5 5 6 7 7 7 7 7
2 1 1 2 2 2 1 0 1 1 2 2 2 3 3 3 2 2 1 2 2 3 3 3 3 3 3 3 2 2 2 2 2 2 2 4 5 6 6 7 7 7 8
2 2 2 3 3 3 1 1 1 2 2 1 1 2 3 3 2 2 2 1 1 2 3 3 3 3 2 2 2 2 2 2 2 2 2 2 3 5 6 6 6 7 7
2 2 2 3 3 2 2 1 1 2 2 2 1 2 3 4 4 3 2 2 1 2 3 3 3 3 2 2 2 2 2 2 2 1 1 1 1 2 3 4 5 6 7
3 2 2 3 3 3 2 1 1 1 2 1 1 2 3 4 4 3 3 2 1 3 3 3 2 3 2 2 2 1 2 1 1 1 1 1 1 0 1 2 3 5 5
3 3 2 2 3 3 2 2 1 2 1 1 1 2 2 3 4 4 3 2 3 3 3 2 3 3 3 3 2 2 2 1 1 1 1 1 1 1 1 2 2 3 4
3 3 3 3 3 3 2 2 2 2 1 1 1 1 2 3 4 4 3 2 3 3 2 2 3 3 3 3 3 3 2 2 1 1 1 1 1 1 1 1 1 2 3
3 3 3 3 2 3 2 2 2 1 1 1 0 1 2 3 4 4 3 3 3 3 3 3 4 4 2 2 3 2 3 3 2 1 1 1 1 1 1 1 1 1 2
4 3 3 3 2 3 2 2 2 2 1 1 1 1 2 3 4 4 3 3 3 3 3 3 3 2 1 2 2 2 1 2 2 2 2 1 1 1 1 1 1 1 1
5 5 4 3 3 3 3 3 3 3 2 2 2 1 1 3 4 3 3 3 3 3 3 3 3 3 2 1 1 2 2 1 1 2 2 1 1 1 1 1 1 1 1
7 5 4 3 3 2 3 3 3 3 2 1 1 0 1 2 3 3 3 3 3 3 3 3 2 2 3 2 1 1 1 2 2 0 1 1 1 1 0 0 0 1 1
6 5 4 3 3 3 3 4 4 3 2 1 2 2 1 1 2 2 3 3 3 2 3 3 2 2 2 2 2 1 1 1 1 2 1 1 1 1 1 0 0 0 1
5 4 4 4 3 3 4 4 4 4 3 3 2 1 1 1 1 1 2 2 2 2 2 2 2 3 2 2 2 2 2 2 2 2 2 1 1 1 1 0 0 0 1
Wind_Direction
222 208 171 144 133 124 121 120 118 116 114 113 111 110 111 115 119 123 125 124 123 124 123 123 123 121 122 124 124 124 123 126 128 126 127 132 134 133 133 133 132 131 132
172 163 157 143 132 125 123 121 119 117 116 114 112 110 110 112 116 121 123 125 124 122 120 122 123 120 120 123 124 125 124 128 129 127 127 131 136 135 136 136 137 136 135
130 143 147 142 132 127 124 123 123 121 119 116 114 111 109 112 117 123 124 124 123 120 119 121 123 122 122 125 125 125 127 128 127 126 126 127 135 137 139 140 140 137 136
125 134 141 139 132 128 126 125 122 123 121 117 114 111 112 114 118 123 126 124 122 120 120 121 122 123 124 126 126 126 127 128 126 126 124 126 133 140 142 142 143 143 139
119 133 139 136 134 130 127 125 122 122 122 118 113 110 110 114 117 120 124 122 119 119 119 121 120 121 122 126 129 127 124 127 129 127 122 123 131 143 145 144 146 147 145
127 134 137 138 139 134 131 127 125 123 121 118 116 114 113 112 113 116 120 118 118 119 119 117 118 119 120 124 128 127 123 126 122 123 126 130 139 150 149 148 150 150 151
130 135 141 141 140 139 138 132 126 123 122 120 118 116 116 113 112 115 119 118 120 121 119 118 119 119 119 122 126 126 125 125 118 119 128 138 148 154 154 153 155 155 155
128 137 137 141 141 138 138 136 131 129 127 126 125 123 120 117 117 116 119 119 121 123 122 121 120 119 117 117 118 119 122 123 122 128 134 143 149 155 157 156 158 160 160
106 110 126 133 135 137 140 144 142 138 137 136 135 131 124 121 121 121 124 128 128 127 126 126 124 121 120 120 120 121 121 121 122 133 144 146 148 151 156 159 161 162 165
89 96 105 107 109 122 136 150 149 145 142 141 140 135 131 129 130 129 129 135 135 131 130 130 124 122 118 119 120 120 123 123 124 129 142 153 155 158 160 161 163 164 166
110 85 83 99 107 114 129 157 156 154 153 150 145 141 132 120 127 131 128 135 137 131 125 122 120 117 109 108 112 113 114 118 127 131 149 159 160 165 167 168 170 169 165
153 139 104 107 102 93 119 103 108 133 135 128 124 124 121 118 119 126 127 130 133 129 125 122 112 104 93 89 93 96 104 125 132 141 156 163 168 176 179 178 180 179 175
148 149 152 160 149 117 80 84 95 102 111 112 118 126 125 117 113 109 110 111 110 116 119 117 101 95 97 98 93 94 101 111 126 148 162 173 181 184 185 185 186 188 183
124 159 164 141 138 138 123 116 111 124 136 148 139 136 133 123 109 100 98 106 109 115 112 107 106 101 97 96 102 109 114 124 133 150 167 174 184 191 192 192 193 196 191
142 164 164 143 146 145 138 173 134 150 163 175 159 148 147 142 136 130 115 108 110 113 119 117 112 101 91 92 104 119 130 137 145 157 177 184 193 199 199 197 201 204 199
161 166 147 139 148 145 150 165 150 157 158 154 160 168 161 157 154 143 123 102 102 113 125 127 127 118 113 108 105 112 126 137 140 139 159 193 210 209 208 210 208 203 196
163 158 160 160 141 139 158 176 167 167 150 150 182 174 166 160 162 147 129 127 155 128 121 111 105 100 99 99 97 99 107 119 119 126 143 162 202 217 210 210 204 197 200
149 149 170 159 139 143 142 136 149 158 150 170 185 162 160 155 148 137 129 139 146 126 127 121 114 98 90 90 82 72 85 84 89 110 112 120 134 198 205 195 192 197 200
160 152 148 135 128 132 124 114 123 129 136 158 159 162 160 152 147 145 142 158 145 132 124 131 115 115 114 105 96 75 60 56 56 85 105 108 124 133 162 191 186 190 197
152 148 145 130 120 118 102 91 86 86 85 109 156 184 164 157 147 142 147 161 147 126 121 125 117 109 113 111 93 71 55 44 58 58 72 86 104 140 142 163 192 197 202
152 154 156 146 140 128 111 114 118 130 131 98 176 186 163 153 143 146 143 143 136 136 142 131 122 111 101 103 93 63 42 50 60 48 48 59 50 70 123 156 173 178 201
172 177 172 171 159 151 143 133 132 131 145 141 71 98 134 145 148 151 143 146 140 132 125 125 132 136 133 113 121 104 34 14 22 31 41 54 39 57 85 152 159 174 197
184 191 191 189 175 160 136 107 90 79 69 64 60 66 95 133 144 147 148 152 148 145 150 154 154 155 158 113 115 138 139 201 336 6 25 33 49 57 38 58 108 132 184
198 192 191 182 174 158 139 133 133 135 141 162 150 138 74 112 129 140 146 152 155 154 157 170 163 152 149 149 115 96 135 149 149 350 353 21 33 46 27 33 93 115 136
190 183 183 174 177 163 152 157 151 147 153 126 99 87 64 66 100 132 148 153 156 157 163 165 149 149 157 166 164 148 126 111 141 163 250 343 12 348 285 277 153 108 182
181 177 172 170 186 170 162 163 165 162 151 134 125 113 81 69 71 97 138 146 154 159 168 169 162 157 165 160 159 160 164 170 177 169 188 225 297 319 329 317 206 213 208
Height
1497 1497 1497 1497 1498 1498 1498 1499 1500 1500 1501 1501 1502 1502 1502 1502 1503 1504 1504 1505 1507 1508 1510 1511 1513 1514 1516 1518 1520 1522 1524 1525 1527 1527 1527 1529 1532 1535 1538 1540 1542 1544 1546
1497 1498 1498 1499 1500 1500 1500 1501 1502 1502 1503 1503 1504 1504 1504 1505 1505 1505 1506 1507 1509 1510 1511 1513 1514 1516 1518 1519 1522 1523 1525 1527 1528 1529 1529 1531 1534 1537 1539 1541 1543 1545 1547
1498 1499 1499 1500 1501 1502 1502 1503 1504 1505 1505 1506 1506 1506 1506 1507 1507 1508 1509 1510 1511 1512 1513 1514 1516 1517 1519 1521 1523 1525 1527 1529 1530 1532 1533 1534 1537 1539 1541 1543 1544 1546 1548
1500 1500 1501 1502 1503 1504 1505 1505 1506 1507 1508 1508 1508 1509 1509 1509 1510 1511 1511 1512 1513 1515 1516 1517 1518 1519 1520 1522 1525 1527 1529 1531 1532 1533 1535 1537 1538 1540 1542 1544 1546 1547 1549
1501 1502 1503 1504 1505 1506 1507 1507 1508 1509 1510 1510 1510 1511 1511 1512 1512 1513 1514 1515 1516 1517 1518 1519 1520 1521 1522 1524 1526 1529 1531 1532 1534 1535 1537 1538 1540 1542 1543 1545 1547 1548 1550
1503 1504 1505 1506 1507 1508 1509 1509 1510 1511 1512 1512 1513 1513 1514 1514 1515 1515 1516 1518 1519 1520 1521 1522 1522 1523 1525 1526 1528 1530 1532 1534 1535 1537 1538 1540 1541 1543 1544 1545 1547 1549 1551
1505 1506 1507 1508 1509 1510 1511 1512 1512 1513 1514 1515 1515 1516 1516 1517 1517 1518 1519 1520 1521 1523 1524 1524 1525 1526 1527 1529 1531 1532 1534 1535 1537 1538 1540 1541 1543 1544 1545 1546 1548 1550 1551
1507 1508 1509 1510 1511 1512 1513 1514 1514 1515 1516 1517 1518 1518 1519 1519 1520 1521 1522 1523 1524 1525 1526 1527 1528 1529 1530 1531 1533 1534 1535 1537 1538 1539 1541 1542 1544 1545 1545 1547 1549 1550 1552
1510 1510 1511 1512 1513 1514 1515 1516 1516 1517 1518 1519 1520 1521 1521 1522 1523 1523 1524 1525 1526 1527 1528 1529 1530 1531 1532 1534 1535 1536 1537 1538 1540 1541 1542 1543 1544 1545 1546 1548 1549 1550 1552
1511 1512 1513 1514 1514 1515 1516 1517 1518 1519 1520 1521 1522 1523 1523 1524 1525 1526 1527 1527 1529 1529 1530 1531 1532 1533 1534 1535 1536 1537 1539 1540 1541 1542 1543 1544 1545 1546 1547 1548 1549 1550 1552
1513 1514 1515 1515 1516 1517 1518 1519 1520 1521 1522 1523 1523 1524 1525 1526 1527 1527 1528 1529 1530 1531 1532 1533 1534 1535 1536 1537 1538 1539 1540 1541 1542 1543 1544 1545 1546 1547 1548 1549 1550 1551 1552
1514 1515 1516 1517 1518 1519 1519 1520 1521 1522 1523 1524 1525 1526 1526 1527 1528 1529 1530 1530 1531 1532 1533 1534 1535 1536 1537 1538 1539 1540 1541 1542 1543 1544 1545 1545 1546 1547 1548 1549 1550 1551 1552
1515 1516 1517 1518 1519 1520 1520 1521 1522 1523 1524 1525 1526 1527 1528 1528 1529 1530 1531 1532 1532 1533 1534 1535 1536 1537 1538 1539 1540 1541 1542 1543 1544 1545 1545 1546 1547 1547 1548 1549 1550 1551 1552
1517 1517 1518 1519 1519 1520 1521 1522 1523 1524 1525 1526 1527 1528 1528 1529 1530 1531 1532 1533 1533 1534 1535 1536 1537 1538 1539 1540 1541 1542 1543 1544 1544 1545 1546 1546 1547 1548 1548 1549 1550 1551 1551
1518 1519 1519 1520 1520 1521 1522 1523 1523 1524 1525 1526 1527 1528 1529 1530 1531 1532 1533 1534 1534 1535 1536 1537 1538 1539 1540 1541 1542 1543 1544 1544 1545 1545 1546 1547 1547 1548 1548 1549 1549 1550 1551
1519 1520 1520 1520 1521 1522 1522 1523 1524 1524 1526 1527 1528 1529 1529 1530 1531 1532 1533 1534 1535 1535 1537 1538 1539 1539 1540 1542 1542 1543 1544 1544 1545 1545 1546 1547 1547 1548 1548 1548 1549 1549 1550
1520 1521 1521 1521 1522 1522 1523 1524 1524 1525 1526 1527 1528 1529 1530 1531 1532 1533 1533 1534 1535 1536 1537 1538 1539 1540 1541 1542 1543 1543 1544 1545 1545 1546 1546 1547 1547 1547 1548 1548 1548 1549 1550
1521 1521 1522 1522 1523 1523 1524 1524 1525 1526 1526 1527 1528 1529 1530 1531 1532 1533 1534 1535 1536 1537 1537 1539 1539 1541 1541 1542 1543 1544 1544 1545 1545 1546 1546 1546 1547 1547 1547 1547 1548 1548 1549
1522 1523 1523 1523 1524 1524 1524 1525 1525 1526 1527 1528 1529 1530 1530 1531 1532 1533 1534 1535 1536 1537 1538 1539 1540 1541 1542 1542 1543 1544 1544 1544 1545 1546 1546 1546 1546 1546 1547 1547 1547 1548 1548
1523 1524 1524 1524 1524 1525 1525 1526 1526 1527 1528 1529 1530 1530 1531 1532 1533 1534 1535 1536 1537 1537 1538 1539 1540 1541 1542 1542 1543 1543 1544 1544 1544 1545 1545 1546 1546 1546 1546 1547 1547 1547 1548
1524 1524 1525 1525 1525 1526 1526 1527 1527 1528 1529 1529 1530 1531 1532 1532 1533 1534 1535 1536 1537 1538 1539 1540 1540 1541 1542 1543 1543 1543 1544 1544 1544 1544 1545 1545 1545 1546 1546 1546 1547 1547 1547
1524 1524 1525 1526 1526 1527 1527 1528 1528 1529 1530 1530 1531 1532 1532 1533 1534 1535 1536 1536 1537 1538 1539 1540 1541 1541 1542 1543 1543 1543 1543 1545 1544 1544 1545 1545 1545 1545 1546 1546 1546 1547 1547
1523 1524 1525 1526 1526 1527 1528 1529 1529 1530 1530 1531 1532 1532 1533 1534 1534 1535 1536 1537 1538 1538 1539 1540 1541 1542 1542 1543 1543 1544 1544 1544 1544 1545 1545 1545 1545 1545 1545 1545 1546 1546 1546
1522 1524 1525 1526 1527 1528 1528 1529 1529 1530 1531 1531 1532 1533 1533 1534 1535 1536 1536 1537 1538 1539 1539 1540 1541 1542 1542 1543 1543 1543 1544 1544 1544 1544 1545 1545 1545 1545 1545 1545 1545 1545 1546
1522 1523 1525 1526 1527 1528 1528 1529 1530 1530 1531 1532 1533 1533 1534 1534 1535 1536 1536 1537 1538 1539 1539 1540 1541 1541 1542 1542 1543 1543 1543 1544 1544 1544 1544 1544 1544 1544 1544 1544 1544 1544 1545
1521 1523 1524 1525 1526 1527 1528 1529 1530 1530 1531 1532 1533 1533 1534 1535 1535 1535 1536 1537 1538 1538 1539 1540 1540 1541 1541 1542 1542 1543 1543 1543 1543 1543 1543 1543 1543 1543 1544 1544 1544 1543 1544